Year,Month,Day,Hour,Minute,Value (Times are PST for temperature in C)
2016,04,08,00,00,11.20
2016,04,08,00,01,11.20
2016,04,08,00,02,11.20
2016,04,08,00,03,11.10
2016,04,08,00,04,11.10
2016,04,08,00,05,11.10
2016,04,08,00,06,11.10
2016,04,08,00,07,11.00
2016,04,08,00,08,11.00
2016,04,08,00,09,10.90
2016,04,08,00,10,10.90
2016,04,08,00,11,10.90
2016,04,08,00,12,10.90
2016,04,08,00,13,10.90
2016,04,08,00,14,10.80
2016,04,08,00,15,10.80
2016,04,08,00,16,10.80
2016,04,08,00,17,10.80
2016,04,08,00,18,10.80
2016,04,08,00,19,10.80
2016,04,08,00,20,10.80
2016,04,08,00,21,10.70
2016,04,08,00,22,10.70
2016,04,08,00,23,10.70
2016,04,08,00,24,10.70
2016,04,08,00,25,10.60
2016,04,08,00,26,10.60
2016,04,08,00,27,10.60
2016,04,08,00,28,10.60
2016,04,08,00,29,10.50
2016,04,08,00,30,10.50
2016,04,08,00,31,10.50
2016,04,08,00,32,10.40
2016,04,08,00,33,10.40
2016,04,08,00,34,10.40
2016,04,08,00,35,10.40
2016,04,08,00,36,10.40
2016,04,08,00,37,10.30
2016,04,08,00,38,10.30
2016,04,08,00,39,10.30
2016,04,08,00,40,10.30
2016,04,08,00,41,10.30
2016,04,08,00,42,10.30
2016,04,08,00,43,10.30
2016,04,08,00,44,10.30
2016,04,08,00,45,10.20
2016,04,08,00,46,10.20
2016,04,08,00,47,10.20
2016,04,08,00,48,10.20
2016,04,08,00,49,10.20
2016,04,08,00,50,10.20
2016,04,08,00,51,10.20
2016,04,08,00,52,10.20
2016,04,08,00,53,10.20
2016,04,08,00,54,10.20
2016,04,08,00,55,10.10
2016,04,08,00,56,10.10
2016,04,08,00,57,10.10
2016,04,08,00,58,10.10
2016,04,08,00,59,10.10
2016,04,08,01,00,10.10
2016,04,08,01,01,10.10
2016,04,08,01,02,10.10
2016,04,08,01,03,10.10
2016,04,08,01,04,10.10
2016,04,08,01,05,10.10
2016,04,08,01,06,10.10
2016,04,08,01,07,10.00
2016,04,08,01,08,10.00
2016,04,08,01,09,10.00
2016,04,08,01,10,9.90
2016,04,08,01,11,9.90
2016,04,08,01,12,9.90
2016,04,08,01,13,9.80
2016,04,08,01,14,9.80
2016,04,08,01,15,9.80
2016,04,08,01,16,9.80
2016,04,08,01,17,9.80
2016,04,08,01,18,9.80
2016,04,08,01,19,9.80
2016,04,08,01,20,9.80
2016,04,08,01,21,9.80
2016,04,08,01,22,9.80
2016,04,08,01,23,9.80
2016,04,08,01,24,9.70
2016,04,08,01,25,9.70
2016,04,08,01,26,9.70
2016,04,08,01,27,9.70
2016,04,08,01,28,9.70
2016,04,08,01,29,9.70
2016,04,08,01,30,9.70
2016,04,08,01,31,9.60
2016,04,08,01,32,9.60
2016,04,08,01,33,9.60
2016,04,08,01,34,9.60
2016,04,08,01,35,9.60
2016,04,08,01,36,9.50
2016,04,08,01,37,9.50
2016,04,08,01,38,9.50
2016,04,08,01,39,9.40
2016,04,08,01,40,9.40
2016,04,08,01,41,9.40
2016,04,08,01,42,9.40
2016,04,08,01,43,9.40
2016,04,08,01,44,9.40
2016,04,08,01,45,9.40
2016,04,08,01,46,9.30
2016,04,08,01,47,9.30
2016,04,08,01,48,9.30
2016,04,08,01,49,9.30
2016,04,08,01,50,9.30
2016,04,08,01,51,9.30
2016,04,08,01,52,9.30
2016,04,08,01,53,9.30
2016,04,08,01,54,9.30
2016,04,08,01,55,9.30
2016,04,08,01,56,9.30
2016,04,08,01,57,9.30
2016,04,08,01,58,9.30
2016,04,08,01,59,9.30
2016,04,08,02,00,9.30
2016,04,08,02,01,9.30
2016,04,08,02,02,9.30
2016,04,08,02,03,9.30
2016,04,08,02,04,9.30
2016,04,08,02,05,9.30
2016,04,08,02,06,9.30
2016,04,08,02,07,9.30
2016,04,08,02,08,9.30
2016,04,08,02,09,9.40
2016,04,08,02,10,9.40
2016,04,08,02,11,9.30
2016,04,08,02,12,9.30
2016,04,08,02,13,9.30
2016,04,08,02,14,9.30
2016,04,08,02,15,9.30
2016,04,08,02,16,9.30
2016,04,08,02,17,9.30
2016,04,08,02,18,9.30
2016,04,08,02,19,9.30
2016,04,08,02,20,9.30
2016,04,08,02,21,9.20
2016,04,08,02,22,9.20
2016,04,08,02,23,9.20
2016,04,08,02,24,9.20
2016,04,08,02,25,9.20
2016,04,08,02,26,9.20
2016,04,08,02,27,9.20
2016,04,08,02,28,9.10
2016,04,08,02,29,9.10
2016,04,08,02,30,9.10
2016,04,08,02,31,9.10
2016,04,08,02,32,9.10
2016,04,08,02,33,9.10
2016,04,08,02,34,9.00
2016,04,08,02,35,9.00
2016,04,08,02,36,9.00
2016,04,08,02,37,9.00
2016,04,08,02,38,8.90
2016,04,08,02,39,8.90
2016,04,08,02,40,8.90
2016,04,08,02,41,8.90
2016,04,08,02,42,8.80
2016,04,08,02,43,8.80
2016,04,08,02,44,8.80
2016,04,08,02,45,8.80
2016,04,08,02,46,8.80
2016,04,08,02,47,8.80
2016,04,08,02,48,8.80
2016,04,08,02,49,8.80
2016,04,08,02,50,8.80
2016,04,08,02,51,8.80
2016,04,08,02,52,8.80
2016,04,08,02,53,8.80
2016,04,08,02,54,8.70
2016,04,08,02,55,8.70
2016,04,08,02,56,8.70
2016,04,08,02,57,8.70
2016,04,08,02,58,8.70
2016,04,08,02,59,8.70
2016,04,08,03,00,8.70
2016,04,08,03,01,8.70
2016,04,08,03,02,8.70
2016,04,08,03,03,8.70
2016,04,08,03,04,8.70
2016,04,08,03,05,8.70
2016,04,08,03,06,8.70
2016,04,08,03,07,8.70
2016,04,08,03,08,8.70
2016,04,08,03,09,8.70
2016,04,08,03,10,8.80
2016,04,08,03,11,8.80
2016,04,08,03,12,8.80
2016,04,08,03,13,8.70
2016,04,08,03,14,8.70
2016,04,08,03,15,8.70
2016,04,08,03,16,8.70
2016,04,08,03,17,8.70
2016,04,08,03,18,8.70
2016,04,08,03,19,8.70
2016,04,08,03,20,8.60
2016,04,08,03,21,8.60
2016,04,08,03,22,8.60
2016,04,08,03,23,8.60
2016,04,08,03,24,8.60
2016,04,08,03,25,8.60
2016,04,08,03,26,8.60
2016,04,08,03,27,8.60
2016,04,08,03,28,8.60
2016,04,08,03,29,8.50
2016,04,08,03,30,8.50
2016,04,08,03,31,8.50
2016,04,08,03,32,8.60
2016,04,08,03,33,8.60
2016,04,08,03,34,8.50
2016,04,08,03,35,8.50
2016,04,08,03,36,8.50
2016,04,08,03,37,8.50
2016,04,08,03,38,8.50
2016,04,08,03,39,8.40
2016,04,08,03,40,8.40
2016,04,08,03,41,8.40
2016,04,08,03,42,8.40
2016,04,08,03,43,8.40
2016,04,08,03,44,8.40
2016,04,08,03,45,8.40
2016,04,08,03,46,8.30
2016,04,08,03,47,8.30
2016,04,08,03,48,8.30
2016,04,08,03,49,8.30
2016,04,08,03,50,8.30
2016,04,08,03,51,8.20
2016,04,08,03,52,8.20
2016,04,08,03,53,8.20
2016,04,08,03,54,8.20
2016,04,08,03,55,8.20
2016,04,08,03,56,8.20
2016,04,08,03,57,8.20
2016,04,08,03,58,8.20
2016,04,08,03,59,8.20
2016,04,08,04,00,8.20
2016,04,08,04,01,8.20
2016,04,08,04,02,8.20
2016,04,08,04,03,8.10
2016,04,08,04,04,8.10
2016,04,08,04,05,8.10
2016,04,08,04,06,8.10
2016,04,08,04,07,8.10
2016,04,08,04,08,8.10
2016,04,08,04,09,8.00
2016,04,08,04,10,8.00
2016,04,08,04,11,8.00
2016,04,08,04,12,8.00
2016,04,08,04,13,8.00
2016,04,08,04,14,8.00
2016,04,08,04,15,8.00
2016,04,08,04,16,8.00
2016,04,08,04,17,8.00
2016,04,08,04,18,8.00
2016,04,08,04,19,8.00
2016,04,08,04,20,8.00
2016,04,08,04,21,8.00
2016,04,08,04,22,8.00
2016,04,08,04,23,8.00
2016,04,08,04,24,8.00
2016,04,08,04,25,7.90
2016,04,08,04,26,7.90
2016,04,08,04,27,7.90
2016,04,08,04,28,7.90
2016,04,08,04,29,7.90
2016,04,08,04,30,7.90
2016,04,08,04,31,7.90
2016,04,08,04,32,7.90
2016,04,08,04,33,7.90
2016,04,08,04,34,7.90
2016,04,08,04,35,7.90
2016,04,08,04,36,7.80
2016,04,08,04,37,7.80
2016,04,08,04,38,7.80
2016,04,08,04,39,7.80
2016,04,08,04,40,7.80
2016,04,08,04,41,7.80
2016,04,08,04,42,7.80
2016,04,08,04,43,7.80
2016,04,08,04,44,7.80
2016,04,08,04,45,7.80
2016,04,08,04,46,7.80
2016,04,08,04,47,7.80
2016,04,08,04,48,7.80
2016,04,08,04,49,7.80
2016,04,08,04,50,7.80
2016,04,08,04,51,7.80
2016,04,08,04,52,7.80
2016,04,08,04,53,7.80
2016,04,08,04,54,7.80
2016,04,08,04,55,7.80
2016,04,08,04,56,7.70
2016,04,08,04,57,7.70
2016,04,08,04,58,7.70
2016,04,08,04,59,7.70
2016,04,08,05,00,7.70
2016,04,08,05,01,7.70
2016,04,08,05,02,7.70
2016,04,08,05,03,7.70
2016,04,08,05,04,7.70
2016,04,08,05,05,7.70
2016,04,08,05,06,7.70
2016,04,08,05,07,7.70
2016,04,08,05,08,7.60
2016,04,08,05,09,7.60
2016,04,08,05,10,7.60
2016,04,08,05,11,7.60
2016,04,08,05,12,7.60
2016,04,08,05,13,7.60
2016,04,08,05,14,7.60
2016,04,08,05,15,7.60
2016,04,08,05,16,7.70
2016,04,08,05,17,7.70
2016,04,08,05,18,7.70
2016,04,08,05,19,7.60
2016,04,08,05,20,7.60
2016,04,08,05,21,7.60
2016,04,08,05,22,7.60
2016,04,08,05,23,7.60
2016,04,08,05,24,7.60
2016,04,08,05,25,7.60
2016,04,08,05,26,7.70
2016,04,08,05,27,7.70
2016,04,08,05,28,7.70
2016,04,08,05,29,7.70
2016,04,08,05,30,7.70
2016,04,08,05,31,7.70
2016,04,08,05,32,7.80
2016,04,08,05,33,7.80
2016,04,08,05,34,7.80
2016,04,08,05,35,7.80
2016,04,08,05,36,7.80
2016,04,08,05,37,7.80
2016,04,08,05,38,7.70
2016,04,08,05,39,7.70
2016,04,08,05,40,7.70
2016,04,08,05,41,7.70
2016,04,08,05,42,7.60
2016,04,08,05,43,7.60
2016,04,08,05,44,7.60
2016,04,08,05,45,7.60
2016,04,08,05,46,7.50
2016,04,08,05,47,7.50
2016,04,08,05,48,7.50
2016,04,08,05,49,7.50
2016,04,08,05,50,7.40
2016,04,08,05,51,7.50
2016,04,08,05,52,7.50
2016,04,08,05,53,7.50
2016,04,08,05,54,7.50
2016,04,08,05,55,7.50
2016,04,08,05,56,7.50
2016,04,08,05,57,7.50
2016,04,08,05,58,7.40
2016,04,08,05,59,7.40
2016,04,08,06,00,7.40
2016,04,08,06,01,7.40
2016,04,08,06,02,7.40
2016,04,08,06,03,7.40
2016,04,08,06,04,7.40
2016,04,08,06,05,7.40
2016,04,08,06,06,7.50
2016,04,08,06,07,7.50
2016,04,08,06,08,7.50
2016,04,08,06,09,7.60
2016,04,08,06,10,7.60
2016,04,08,06,11,7.60
2016,04,08,06,12,7.60
2016,04,08,06,13,7.60
2016,04,08,06,14,7.60
2016,04,08,06,15,7.60
2016,04,08,06,16,7.60
2016,04,08,06,17,7.60
2016,04,08,06,18,7.60
2016,04,08,06,19,7.60
2016,04,08,06,20,7.60
2016,04,08,06,21,7.60
2016,04,08,06,22,7.50
2016,04,08,06,23,7.50
2016,04,08,06,24,7.40
2016,04,08,06,25,7.40
2016,04,08,06,26,7.40
2016,04,08,06,27,7.30
2016,04,08,06,28,7.30
2016,04,08,06,29,7.30
2016,04,08,06,30,7.30
2016,04,08,06,31,7.30
2016,04,08,06,32,7.30
2016,04,08,06,33,7.30
2016,04,08,06,34,7.30
2016,04,08,06,35,7.30
2016,04,08,06,36,7.30
2016,04,08,06,37,7.30
2016,04,08,06,38,7.30
2016,04,08,06,39,7.30
2016,04,08,06,40,7.30
2016,04,08,06,41,7.30
2016,04,08,06,42,7.30
2016,04,08,06,43,7.30
2016,04,08,06,44,7.30
2016,04,08,06,45,7.30
2016,04,08,06,46,7.30
2016,04,08,06,47,7.30
2016,04,08,06,48,7.20
2016,04,08,06,49,7.20
2016,04,08,06,50,7.20
2016,04,08,06,51,7.30
2016,04,08,06,52,7.30
2016,04,08,06,53,7.30
2016,04,08,06,54,7.30
2016,04,08,06,55,7.30
2016,04,08,06,56,7.30
2016,04,08,06,57,7.30
2016,04,08,06,58,7.20
2016,04,08,06,59,7.30
2016,04,08,07,00,7.30
2016,04,08,07,01,7.30
2016,04,08,07,02,7.30
2016,04,08,07,03,7.30
2016,04,08,07,04,7.40
2016,04,08,07,05,7.40
2016,04,08,07,06,7.40
2016,04,08,07,07,7.40
2016,04,08,07,08,7.40
2016,04,08,07,09,7.40
2016,04,08,07,10,7.40
2016,04,08,07,11,7.40
2016,04,08,07,12,7.40
2016,04,08,07,13,7.40
2016,04,08,07,14,7.40
2016,04,08,07,15,7.40
2016,04,08,07,16,7.40
2016,04,08,07,17,7.40
2016,04,08,07,18,7.30
2016,04,08,07,19,7.30
2016,04,08,07,20,7.30
2016,04,08,07,21,7.30
2016,04,08,07,22,7.30
2016,04,08,07,23,7.20
2016,04,08,07,24,7.20
2016,04,08,07,25,7.30
2016,04,08,07,26,7.30
2016,04,08,07,27,7.30
2016,04,08,07,28,7.30
2016,04,08,07,29,7.30
2016,04,08,07,30,7.30
2016,04,08,07,31,7.30
2016,04,08,07,32,7.30
2016,04,08,07,33,7.30
2016,04,08,07,34,7.30
2016,04,08,07,35,7.30
2016,04,08,07,36,7.40
2016,04,08,07,37,7.50
2016,04,08,07,38,7.50
2016,04,08,07,39,7.60
2016,04,08,07,40,7.70
2016,04,08,07,41,7.70
2016,04,08,07,42,7.80
2016,04,08,07,43,7.90
2016,04,08,07,44,8.00
2016,04,08,07,45,8.00
2016,04,08,07,46,8.10
2016,04,08,07,47,8.20
2016,04,08,07,48,8.20
2016,04,08,07,49,8.30
2016,04,08,07,50,8.30
2016,04,08,07,51,8.40
2016,04,08,07,52,8.40
2016,04,08,07,53,8.40
2016,04,08,07,54,8.40
2016,04,08,07,55,8.50
2016,04,08,07,56,8.50
2016,04,08,07,57,8.60
2016,04,08,07,58,8.60
2016,04,08,07,59,8.60
2016,04,08,08,00,8.70
2016,04,08,08,01,8.70
2016,04,08,08,02,8.70
2016,04,08,08,03,8.70
2016,04,08,08,04,8.70
2016,04,08,08,05,8.70
2016,04,08,08,06,8.80
2016,04,08,08,07,8.80
2016,04,08,08,08,8.80
2016,04,08,08,09,8.90
2016,04,08,08,10,9.00
2016,04,08,08,11,9.10
2016,04,08,08,12,9.20
2016,04,08,08,13,9.30
2016,04,08,08,14,9.40
2016,04,08,08,15,9.40
2016,04,08,08,16,9.40
2016,04,08,08,17,9.50
2016,04,08,08,18,9.50
2016,04,08,08,19,9.60
2016,04,08,08,20,9.60
2016,04,08,08,21,9.70
2016,04,08,08,22,9.80
2016,04,08,08,23,9.90
2016,04,08,08,24,10.00
2016,04,08,08,25,10.20
2016,04,08,08,26,10.20
2016,04,08,08,27,10.30
2016,04,08,08,28,10.50
2016,04,08,08,29,10.60
2016,04,08,08,30,10.80
2016,04,08,08,31,10.90
2016,04,08,08,32,11.10
2016,04,08,08,33,11.20
2016,04,08,08,34,11.30
2016,04,08,08,35,11.40
2016,04,08,08,36,11.50
2016,04,08,08,37,11.50
2016,04,08,08,38,11.60
2016,04,08,08,39,11.60
2016,04,08,08,40,11.70
2016,04,08,08,41,11.70
2016,04,08,08,42,11.80
2016,04,08,08,43,11.80
2016,04,08,08,44,11.90
2016,04,08,08,45,11.90
2016,04,08,08,46,11.90
2016,04,08,08,47,12.00
2016,04,08,08,48,12.00
2016,04,08,08,49,12.00
2016,04,08,08,50,12.00
2016,04,08,08,51,12.10
2016,04,08,08,52,12.10
2016,04,08,08,53,12.20
2016,04,08,08,54,12.30
2016,04,08,08,55,12.30
2016,04,08,08,56,12.40
2016,04,08,08,57,12.50
2016,04,08,08,58,12.60
2016,04,08,08,59,12.70
2016,04,08,09,00,12.80
2016,04,08,09,01,13.00
2016,04,08,09,02,13.10
2016,04,08,09,03,13.20
2016,04,08,09,04,13.40
2016,04,08,09,05,13.50
2016,04,08,09,06,13.50
2016,04,08,09,07,13.60
2016,04,08,09,08,13.70
2016,04,08,09,09,13.80
2016,04,08,09,10,13.90
2016,04,08,09,11,14.10
2016,04,08,09,12,14.20
2016,04,08,09,13,14.30
2016,04,08,09,14,14.40
2016,04,08,09,15,14.50
2016,04,08,09,16,14.60
2016,04,08,09,17,14.60
2016,04,08,09,18,14.70
2016,04,08,09,19,14.80
2016,04,08,09,20,14.80
2016,04,08,09,21,14.90
2016,04,08,09,22,14.90
2016,04,08,09,23,15.00
2016,04,08,09,24,15.10
2016,04,08,09,25,15.20
2016,04,08,09,26,15.40
2016,04,08,09,27,15.50
2016,04,08,09,28,15.70
2016,04,08,09,29,15.80
2016,04,08,09,30,16.00
2016,04,08,09,31,16.10
2016,04,08,09,32,16.10
2016,04,08,09,33,16.10
2016,04,08,09,34,16.10
2016,04,08,09,35,16.10
2016,04,08,09,36,16.00
2016,04,08,09,37,16.10
2016,04,08,09,38,16.10
2016,04,08,09,39,16.10
2016,04,08,09,40,16.20
2016,04,08,09,41,16.20
2016,04,08,09,42,16.30
2016,04,08,09,43,16.30
2016,04,08,09,44,16.30
2016,04,08,09,45,16.30
2016,04,08,09,46,16.20
2016,04,08,09,47,16.10
2016,04,08,09,48,16.00
2016,04,08,09,49,15.90
2016,04,08,09,50,15.90
2016,04,08,09,51,16.00
2016,04,08,09,52,16.00
2016,04,08,09,53,16.00
2016,04,08,09,54,16.00
2016,04,08,09,55,16.00
2016,04,08,09,56,16.00
2016,04,08,09,57,16.00
2016,04,08,09,58,16.20
2016,04,08,09,59,16.20
2016,04,08,10,00,16.30
2016,04,08,10,01,16.30
2016,04,08,10,02,16.30
2016,04,08,10,03,16.30
2016,04,08,10,04,16.30
2016,04,08,10,05,16.30
2016,04,08,10,06,16.40
2016,04,08,10,07,16.40
2016,04,08,10,08,16.50
2016,04,08,10,09,16.60
2016,04,08,10,10,16.60
2016,04,08,10,11,16.70
2016,04,08,10,12,16.90
2016,04,08,10,13,17.10
2016,04,08,10,14,17.30
2016,04,08,10,15,17.50
2016,04,08,10,16,17.70
2016,04,08,10,17,17.90
2016,04,08,10,18,18.20
2016,04,08,10,19,18.40
2016,04,08,10,20,18.50
2016,04,08,10,21,18.50
2016,04,08,10,22,18.60
2016,04,08,10,23,18.60
2016,04,08,10,24,18.60
2016,04,08,10,25,18.60
2016,04,08,10,26,18.50
2016,04,08,10,27,18.40
2016,04,08,10,28,18.30
2016,04,08,10,29,18.20
2016,04,08,10,30,18.00
2016,04,08,10,31,18.00
2016,04,08,10,32,18.00
2016,04,08,10,33,18.10
2016,04,08,10,34,18.00
2016,04,08,10,35,17.90
2016,04,08,10,36,17.70
2016,04,08,10,37,17.70
2016,04,08,10,38,17.70
2016,04,08,10,39,17.70
2016,04,08,10,40,17.80
2016,04,08,10,41,17.90
2016,04,08,10,42,17.90
2016,04,08,10,43,17.90
2016,04,08,10,44,17.90
2016,04,08,10,45,17.80
2016,04,08,10,46,17.60
2016,04,08,10,47,17.50
2016,04,08,10,48,17.40
2016,04,08,10,49,17.50
2016,04,08,10,50,17.50
2016,04,08,10,51,17.60
2016,04,08,10,52,17.60
2016,04,08,10,53,17.60
2016,04,08,10,54,17.70
2016,04,08,10,55,17.70
2016,04,08,10,56,17.90
2016,04,08,10,57,18.00
2016,04,08,10,58,18.10
2016,04,08,10,59,18.20
2016,04,08,11,00,18.30
2016,04,08,11,01,18.50
2016,04,08,11,02,18.70
2016,04,08,11,03,18.90
2016,04,08,11,04,19.00
2016,04,08,11,05,19.10
2016,04,08,11,06,19.30
2016,04,08,11,07,19.40
2016,04,08,11,08,19.40
2016,04,08,11,09,19.30
2016,04,08,11,10,19.30
2016,04,08,11,11,19.30
2016,04,08,11,12,19.20
2016,04,08,11,13,19.20
2016,04,08,11,14,19.30
2016,04,08,11,15,19.40
2016,04,08,11,16,19.40
2016,04,08,11,17,19.50
2016,04,08,11,18,19.50
2016,04,08,11,19,19.50
2016,04,08,11,20,19.40
2016,04,08,11,21,19.40
2016,04,08,11,22,19.40
2016,04,08,11,23,19.50
2016,04,08,11,24,19.60
2016,04,08,11,25,19.70
2016,04,08,11,26,19.70
2016,04,08,11,27,19.80
2016,04,08,11,28,19.90
2016,04,08,11,29,19.90
2016,04,08,11,30,19.90
2016,04,08,11,31,19.90
2016,04,08,11,32,19.70
2016,04,08,11,33,19.70
2016,04,08,11,34,19.70
2016,04,08,11,35,19.70
2016,04,08,11,36,19.70
2016,04,08,11,37,19.70
2016,04,08,11,38,19.60
2016,04,08,11,39,19.50
2016,04,08,11,40,19.40
2016,04,08,11,41,19.40
2016,04,08,11,42,19.50
2016,04,08,11,43,19.50
2016,04,08,11,44,19.40
2016,04,08,11,45,19.40
2016,04,08,11,46,19.40
2016,04,08,11,47,19.30
2016,04,08,11,48,19.30
2016,04,08,11,49,19.40
2016,04,08,11,50,19.40
2016,04,08,11,51,19.50
2016,04,08,11,52,19.60
2016,04,08,11,53,19.60
2016,04,08,11,54,19.60
2016,04,08,11,55,19.60
2016,04,08,11,56,19.60
2016,04,08,11,57,19.60
2016,04,08,11,58,19.70
2016,04,08,11,59,19.70
2016,04,08,12,00,19.60
2016,04,08,12,01,19.60
2016,04,08,12,02,19.60
2016,04,08,12,03,19.70
2016,04,08,12,04,19.90
2016,04,08,12,05,20.00
2016,04,08,12,06,20.00
2016,04,08,12,07,20.10
2016,04,08,12,08,20.10
2016,04,08,12,09,20.20
2016,04,08,12,10,20.30
2016,04,08,12,11,20.40
2016,04,08,12,12,20.30
2016,04,08,12,13,20.40
2016,04,08,12,14,20.40
2016,04,08,12,15,20.40
2016,04,08,12,16,20.30
2016,04,08,12,17,20.10
2016,04,08,12,18,20.10
2016,04,08,12,19,20.00
2016,04,08,12,20,19.90
2016,04,08,12,21,19.90
2016,04,08,12,22,19.90
2016,04,08,12,23,19.80
2016,04,08,12,24,19.70
2016,04,08,12,25,19.70
2016,04,08,12,26,19.70
2016,04,08,12,27,19.70
2016,04,08,12,28,19.70
2016,04,08,12,29,19.70
2016,04,08,12,30,19.70
2016,04,08,12,31,19.70
2016,04,08,12,32,19.70
2016,04,08,12,33,19.70
2016,04,08,12,34,19.70
2016,04,08,12,35,19.70
2016,04,08,12,36,19.70
2016,04,08,12,37,19.70
2016,04,08,12,38,19.80
2016,04,08,12,39,19.80
2016,04,08,12,40,19.80
2016,04,08,12,41,19.90
2016,04,08,12,42,19.90
2016,04,08,12,43,20.00
2016,04,08,12,44,20.00
2016,04,08,12,45,20.00
2016,04,08,12,46,20.10
2016,04,08,12,47,20.20
2016,04,08,12,48,20.20
2016,04,08,12,49,20.20
2016,04,08,12,50,20.20
2016,04,08,12,51,20.20
2016,04,08,12,52,20.30
2016,04,08,12,53,20.30
2016,04,08,12,54,20.40
2016,04,08,12,55,20.50
2016,04,08,12,56,20.60
2016,04,08,12,57,20.60
2016,04,08,12,58,20.60
2016,04,08,12,59,20.60
2016,04,08,13,00,20.50
2016,04,08,13,01,20.40
2016,04,08,13,02,20.30
2016,04,08,13,03,20.30
2016,04,08,13,04,20.30
2016,04,08,13,05,20.10
2016,04,08,13,06,19.90
2016,04,08,13,07,19.70
2016,04,08,13,08,19.60
2016,04,08,13,09,19.30
2016,04,08,13,10,19.20
2016,04,08,13,11,19.10
2016,04,08,13,12,19.00
2016,04,08,13,13,18.90
2016,04,08,13,14,18.70
2016,04,08,13,15,18.70
2016,04,08,13,16,18.50
2016,04,08,13,17,18.40
2016,04,08,13,18,18.40
2016,04,08,13,19,18.30
2016,04,08,13,20,18.30
2016,04,08,13,21,18.20
2016,04,08,13,22,18.10
2016,04,08,13,23,18.20
2016,04,08,13,24,18.20
2016,04,08,13,25,18.10
2016,04,08,13,26,18.00
2016,04,08,13,27,17.90
2016,04,08,13,28,17.80
2016,04,08,13,29,17.80
2016,04,08,13,30,17.80
2016,04,08,13,31,17.80
2016,04,08,13,32,17.80
2016,04,08,13,33,17.70
2016,04,08,13,34,17.60
2016,04,08,13,35,17.60
2016,04,08,13,36,17.50
2016,04,08,13,37,17.50
2016,04,08,13,38,17.50
2016,04,08,13,39,17.60
2016,04,08,13,40,17.50
2016,04,08,13,41,17.40
2016,04,08,13,42,17.40
2016,04,08,13,43,17.50
2016,04,08,13,44,17.50
2016,04,08,13,45,17.40
2016,04,08,13,46,17.40
2016,04,08,13,47,17.50
2016,04,08,13,48,17.40
2016,04,08,13,49,17.40
2016,04,08,13,50,17.30
2016,04,08,13,51,17.20
2016,04,08,13,52,17.10
2016,04,08,13,53,17.10
2016,04,08,13,54,17.00
2016,04,08,13,55,17.00
2016,04,08,13,56,17.00
2016,04,08,13,57,17.00
2016,04,08,13,58,16.90
2016,04,08,13,59,17.00
2016,04,08,14,00,17.00
2016,04,08,14,01,16.90
2016,04,08,14,02,16.80
2016,04,08,14,03,16.80
2016,04,08,14,04,16.80
2016,04,08,14,05,16.70
2016,04,08,14,06,16.70
2016,04,08,14,07,16.70
2016,04,08,14,08,16.70
2016,04,08,14,09,16.70
2016,04,08,14,10,16.70
2016,04,08,14,11,16.70
2016,04,08,14,12,16.70
2016,04,08,14,13,16.70
2016,04,08,14,14,16.80
2016,04,08,14,15,16.80
2016,04,08,14,16,16.90
2016,04,08,14,17,16.90
2016,04,08,14,18,16.90
2016,04,08,14,19,17.00
2016,04,08,14,20,17.00
2016,04,08,14,21,17.00
2016,04,08,14,22,17.00
2016,04,08,14,23,16.90
2016,04,08,14,24,16.90
2016,04,08,14,25,16.80
2016,04,08,14,26,16.80
2016,04,08,14,27,16.90
2016,04,08,14,28,16.80
2016,04,08,14,29,16.80
2016,04,08,14,30,16.80
2016,04,08,14,31,16.80
2016,04,08,14,32,16.80
2016,04,08,14,33,16.80
2016,04,08,14,34,16.90
2016,04,08,14,35,17.10
2016,04,08,14,36,17.20
2016,04,08,14,37,17.20
2016,04,08,14,38,17.30
2016,04,08,14,39,17.30
2016,04,08,14,40,17.30
2016,04,08,14,41,17.30
2016,04,08,14,42,17.40
2016,04,08,14,43,17.40
2016,04,08,14,44,17.40
2016,04,08,14,45,17.40
2016,04,08,14,46,17.40
2016,04,08,14,47,17.50
2016,04,08,14,48,17.60
2016,04,08,14,49,17.70
2016,04,08,14,50,17.80
2016,04,08,14,51,17.90
2016,04,08,14,52,18.00
2016,04,08,14,53,18.10
2016,04,08,14,54,18.10
2016,04,08,14,55,18.20
2016,04,08,14,56,18.20
2016,04,08,14,57,18.20
2016,04,08,14,58,18.20
2016,04,08,14,59,18.20
2016,04,08,15,00,18.20
2016,04,08,15,01,18.20
2016,04,08,15,02,18.20
2016,04,08,15,03,18.20
2016,04,08,15,04,18.30
2016,04,08,15,05,18.30
2016,04,08,15,06,18.20
2016,04,08,15,07,18.20
2016,04,08,15,08,18.20
2016,04,08,15,09,18.20
2016,04,08,15,10,18.30
2016,04,08,15,11,18.40
2016,04,08,15,12,18.50
2016,04,08,15,13,18.50
2016,04,08,15,14,18.60
2016,04,08,15,15,18.60
2016,04,08,15,16,18.70
2016,04,08,15,17,18.80
2016,04,08,15,18,18.90
2016,04,08,15,19,18.80
2016,04,08,15,20,18.80
2016,04,08,15,21,18.70
2016,04,08,15,22,18.70
2016,04,08,15,23,18.70
2016,04,08,15,24,18.60
2016,04,08,15,25,18.60
2016,04,08,15,26,18.60
2016,04,08,15,27,18.50
2016,04,08,15,28,18.30
2016,04,08,15,29,18.30
2016,04,08,15,30,18.30
2016,04,08,15,31,18.30
2016,04,08,15,32,18.30
2016,04,08,15,33,18.20
2016,04,08,15,34,18.10
2016,04,08,15,35,17.90
2016,04,08,15,36,17.90
2016,04,08,15,37,17.90
2016,04,08,15,38,17.90
2016,04,08,15,39,17.90
2016,04,08,15,40,18.00
2016,04,08,15,41,18.00
2016,04,08,15,42,18.10
2016,04,08,15,43,18.20
2016,04,08,15,44,18.10
2016,04,08,15,45,18.10
2016,04,08,15,46,18.20
2016,04,08,15,47,18.20
2016,04,08,15,48,18.30
2016,04,08,15,49,18.30
2016,04,08,15,50,18.40
2016,04,08,15,51,18.40
2016,04,08,15,52,18.40
2016,04,08,15,53,18.30
2016,04,08,15,54,18.30
2016,04,08,15,55,18.30
2016,04,08,15,56,18.20
2016,04,08,15,57,18.30
2016,04,08,15,58,18.30
2016,04,08,15,59,18.30
2016,04,08,16,00,18.30
2016,04,08,16,01,18.40
2016,04,08,16,02,18.40
2016,04,08,16,03,18.40
2016,04,08,16,04,18.40
2016,04,08,16,05,18.30
2016,04,08,16,06,18.20
2016,04,08,16,07,18.30
2016,04,08,16,08,18.40
2016,04,08,16,09,18.50
2016,04,08,16,10,18.60
2016,04,08,16,11,18.60
2016,04,08,16,12,18.50
2016,04,08,16,13,18.50
2016,04,08,16,14,18.60
2016,04,08,16,15,18.60
2016,04,08,16,16,18.60
2016,04,08,16,17,18.60
2016,04,08,16,18,18.60
2016,04,08,16,19,18.50
2016,04,08,16,20,18.40
2016,04,08,16,21,18.30
2016,04,08,16,22,18.20
2016,04,08,16,23,18.10
2016,04,08,16,24,18.10
2016,04,08,16,25,18.00
2016,04,08,16,26,18.00
2016,04,08,16,27,18.00
2016,04,08,16,28,18.10
2016,04,08,16,29,18.10
2016,04,08,16,30,18.10
2016,04,08,16,31,18.20
2016,04,08,16,32,18.30
2016,04,08,16,33,18.20
2016,04,08,16,34,18.20
2016,04,08,16,35,18.20
2016,04,08,16,36,18.20
2016,04,08,16,37,18.10
2016,04,08,16,38,18.10
2016,04,08,16,39,18.00
2016,04,08,16,40,17.90
2016,04,08,16,41,17.80
2016,04,08,16,42,17.80
2016,04,08,16,43,17.80
2016,04,08,16,44,17.70
2016,04,08,16,45,17.70
2016,04,08,16,46,17.80
2016,04,08,16,47,17.80
2016,04,08,16,48,17.70
2016,04,08,16,49,17.70
2016,04,08,16,50,17.60
2016,04,08,16,51,17.60
2016,04,08,16,52,17.60
2016,04,08,16,53,17.60
2016,04,08,16,54,17.60
2016,04,08,16,55,17.50
2016,04,08,16,56,17.50
2016,04,08,16,57,17.40
2016,04,08,16,58,17.40
2016,04,08,16,59,17.40
2016,04,08,17,00,17.30
2016,04,08,17,01,17.40
2016,04,08,17,02,17.40
2016,04,08,17,03,17.40
2016,04,08,17,04,17.40
2016,04,08,17,05,17.30
2016,04,08,17,06,17.20
2016,04,08,17,07,17.10
2016,04,08,17,08,17.10
2016,04,08,17,09,17.10
2016,04,08,17,10,17.10
2016,04,08,17,11,17.10
2016,04,08,17,12,17.10
2016,04,08,17,13,17.00
2016,04,08,17,14,17.00
2016,04,08,17,15,16.90
2016,04,08,17,16,16.80
2016,04,08,17,17,16.70
2016,04,08,17,18,16.70
2016,04,08,17,19,16.60
2016,04,08,17,20,16.60
2016,04,08,17,21,16.60
2016,04,08,17,22,16.50
2016,04,08,17,23,16.40
2016,04,08,17,24,16.30
2016,04,08,17,25,16.30
2016,04,08,17,26,16.20
2016,04,08,17,27,16.10
2016,04,08,17,28,16.10
2016,04,08,17,29,16.10
2016,04,08,17,30,16.10
2016,04,08,17,31,16.00
2016,04,08,17,32,16.00
2016,04,08,17,33,16.00
2016,04,08,17,34,16.10
2016,04,08,17,35,16.20
2016,04,08,17,36,16.20
2016,04,08,17,37,16.20
2016,04,08,17,38,16.10